This is the latest recevied weather packets stored in our database for station/object KD7YDD. If no packets are shown the sender has not sent any weather packets the latest 10 day(s).
| Time | Temp. | Humidity | Pressure | Rain* | Wind** | Luminosity | Snow |
|---|---|---|---|---|---|---|---|
| 1778179277 | 16.11° C | 81% | 1019.6 hPa | 0 mm | - | 60 W/m² | - |
| 1778178677 | 16.11° C | 81% | 1019.7 hPa | 0 mm | - | 62 W/m² | - |
| 1778177483 | 15.56° C | 82% | 1019.9 hPa | 0 mm | - | 209 W/m² | - |
| 1778175677 | 13.89° C | 86% | 1020 hPa | 0 mm | - | 183 W/m² | - |
| 1778173877 | 12.78° C | 89% | 1020.1 hPa | 0 mm | - | 125 W/m² | - |
| 1778170297 | 11.67° C | 90% | 1020.4 hPa | 0 mm | - | 60 W/m² | - |
| 1778164277 | 11.11° C | 90% | 1020.1 hPa | 0 mm | - | 19 W/m² | - |
| 1778152876 | 11.67° C | 89% | 1019.3 hPa | 0 mm | - | 0 W/m² | - |
| 1778144476 | 11.11° C | 89% | 1019.8 hPa | 0 mm | - | 0 W/m² | - |
| 1778142676 | 11.11° C | 89% | 1019.8 hPa | 0 mm | - | 0 W/m² | - |
| 1778139680 | 10.56° C | 88% | 1019.6 hPa | 0 mm | - | 0 W/m² | - |
| 1778137275 | 11.11° C | 86% | 1019.5 hPa | 0 mm | - | 0 W/m² | - |
| 1778136676 | 11.11° C | 86% | 1019.4 hPa | 0 mm | - | 0 W/m² | - |
| 1778135481 | 11.11° C | 86% | 1019.4 hPa | 0 mm | - | 0 W/m² | - |
| 1778134902 | 11.67° C | 86% | 1019.4 hPa | 0 mm | - | 0 W/m² | - |
| 1778132480 | 12.22° C | 84% | 1019.2 hPa | 0 mm | - | 0 W/m² | - |
| 1778126476 | 14.44° C | 80% | 1018.8 hPa | 0 mm | - | 0 W/m² | - |
| 1778125280 | 15° C | 79% | 1018.6 hPa | 0 mm | - | 0 W/m² | - |
| 1778120476 | 17.78° C | 78% | 1018.4 hPa | 0 mm | - | 5 W/m² | - |
| 1778118096 | 18.33° C | 74% | 1018.6 hPa | 0 mm | - | 11 W/m² | - |
| 1778112117 | 20° C | 68% | 1018.6 hPa | 0 mm | - | 90 W/m² | - |
| 1778110275 | 20° C | 68% | 1018.7 hPa | 0 mm | - | 65 W/m² | - |
| 1778107875 | 20.56° C | 67% | 1019.1 hPa | 0 mm | - | 663 W/m² | - |
| 1778106675 | 21.11° C | 66% | 1019.3 hPa | 0 mm | - | 705 W/m² | - |
| 1778106075 | 21.11° C | 66% | 1019.4 hPa | 0 mm | - | 719 W/m² | - |
* Rain latest hour (hover to see other rain measurements)
** Current wind speed in m/s (hover to see current wind gust speed)